Regional Weather Roundup
Issued by NWS Albany, NY

Home | Current Version | Previous Version | Text Only | Print | Product List | Glossary On
Versions: 1 2 3 4 5 6 7 8 9 10 11 12 13 14 15 16 17 18 19 20 21 22 23 24 25 26 27 28 29 30 31 32 33 34 35 36 37 38 39 40 41 42 43 44 45 46 47 48 49 50
000
ASUS41 KALY 120510
RWRALY

NEW YORK STATE HOURLY WEATHER ROUNDUP
NATIONAL WEATHER SERVICE ALBANY NY
100 AM EDT SAT JUL 12 2014

NOTE: "FAIR" INDICATES FEW OR NO CLOUDS BELOW 12,000 FEET WITH NO
SIGNIFICANT WEATHER AND/OR NO OBSTRUCTIONS TO VISIBILITY.

NYZ032-033-038>043-046>054-057>066-NYZ062>081-120600-
EAST


CITY           SKY/WX    TMP DP  RH WIND       PRES   REMARKS
ALBANY         CLEAR     62  56  80 CALM      30.22S
GLENS FALLS    CLEAR     58  57  97 CALM      30.21S
POUGHKEEPSIE   CLEAR     65  61  87 CALM      30.22R
NEWBURGH       CLEAR     68  63  83 CALM      30.25R
MONTGOMERY     CLEAR     63  61  93 CALM      30.23R
WHITE PLAINS   CLEAR     65  61  87 CALM      30.23S
ISLIP          CLEAR     68  60  75 CALM      30.22R
NEW YORK CITY  PTCLDY    72  63  73 S5        30.22S
CENTRAL PARK   CLEAR     72  61  68 CALM      30.26R
$$

NYZ005>009-017-018-044>046-055-056-120600-
CENTRAL


CITY           SKY/WX    TMP DP  RH WIND       PRES   REMARKS
FULTON         PTCLDY    61  54  77 CALM      30.20S
SYRACUSE       PTCLDY    64  56  75 E3        30.20S
ROME           CLEAR     59  55  87 SE3       30.22F
ELMIRA         MOCLDY    62  59  90 CALM      30.21S
BINGHAMTON     PTCLDY    64  57  78 SE3       30.25S
$$

NYZ026>034-041>043-120600-
NORTH


CITY           SKY/WX    TMP DP  RH WIND       PRES   REMARKS
WATERTOWN      PTCLDY    54  50  86 CALM      30.20S
FORT DRUM      NOT AVBL
MASSENA        CLEAR     55  54  96 CALM      30.20S
SARANAC LAKE   CLEAR     46  45  96 CALM      30.24S
PLATTSBURGH    CLEAR     57  55  93 CALM      30.20S
$$

NYZ001>004-010>016-019>021-120600-
WEST


CITY           SKY/WX    TMP DP  RH WIND       PRES   REMARKS
NIAGARA FALLS  PTCLDY    62  55  77 E3        30.18F
BUFFALO        MOCLDY    65  57  75 E5        30.19F
DUNKIRK        PTCLDY    59  55  87 S3        30.19F
JAMESTOWN      PTCLDY    64  50  59 CALM      30.24S
WELLSVILLE     CLEAR     64  59  83 CALM      30.26F
ROCHESTER      MOCLDY    63  56  78 CALM      30.20S
PENN YAN       CLEAR     62  57  83 S3        30.21F
$$

             KEY
       WCI = WIND CHILL INDEX
       VSB = VISIBILITY
       HX  = HEAT INDEX
$$



USA.gov is the U.S. government's official web portal to all federal, state and local government web resources and services.